COSMOS 1691 DEB, 16266

Orbit data source: Space-Track

COSMOS 1691 DEB, 16266 is space debris in LEO originally from a launch on Wed, 09 Oct 1985 UTC launched from the Plesetsk Missile And Space Complex (PKMTR). Debris objects in space refer to the collection of defunct objects orbiting the Earth. Examples of debris include non-operational satellites, rocket bodies, and fragments generated from explosions, collisions, or faulty payload assembly.

Loading next visibility...
Identifier
16266, 1985-094K
Orbit
LEO
Country
Flag of CISCIS
Related business
Manufacturer
Unknown
Mission
Spacecraft
Bus & Motor
Unknown
Mass
Unknown
Launch date (UTC)
1985-10-09 (40 years ago)
Launch vehicle
Unknown
Launch site
Plesetsk Missile And Space Complex (PKMTR)
Object type
Payload
Rocket body
Debris
Shape & HBR
Unknown shape, 0.2 m
Radar Cross Section
Small (<0.1 m²)

Expand to show TLE details & history
Last TLE update: 20 hours ago

TLE from 20 hours ago
0 COSMOS 1691 DEB
1 16266U 85094K   25294.80424891  .00000275  00000-0  13956-2 0  9995
2 16266  82.6043  39.2156 0011899 170.3103 313.9844 12.66626328847301
Epoch: 2025-10-21T19:18Z
TLE epoch observation values (Epoch: 2025-10-21T19:18:07.105Z)
Latitude
55.20026°
Longitude
-111.51088°
Altitude
1,398.385 km
Speed
7.169 km/s
True Right ascension
13h 54m 01s
True Declination
55° 03' 08"
Sunlit
Object was in daylight at epoch
Visualization orbit readout
Latitude
Unknown
Longitude
Unknown
Altitude
Unknown
Speed
Unknown
Apparent Right ascension
Unknown
Apparent Declination
Unknown
Sunlit
N/A
Visualization observer readout
Local Sidereal Time
10:02:53
Azimuth
Unknown
Elevation
Unknown
Doppler factor
Unknown
Orbital elements
Apogee altitude
1,402.274 km
Perigee altitude
1,383.78 km
Semi-major axis
7,771.164 km
Eccentricity
0.00119
Inclination
82.6043°
RAAN
39.2156°
Arg. of periapsis
170.3103°
True anomaly
313.88619°
Mean anomaly
313.9844°
Eccentric anomaly
313.9353°
Mean motion
3.16821 °/min
Orbital period
113.63 mins
BSTAR
0.0013956
Loading maneuver chart data...
Computing Atmospheric mass density...
Loading historical data...
Loading historical data...
Loading historical data...
Loading historical data...
Loading historical data...
Loading historical data...
Loading historical data...

Documentation

Showing up to 5 results
|